Regional Weather Roundup
Issued by NWS Wilmington, NC

Home | Current Version | Previous Version | Text Only | Print | Product List | Glossary On
Versions: 1 2 3 4 5 6 7 8 9 10 11 12 13 14 15 16 17 18 19 20 21 22 23 24 25 26 27 28 29 30 31 32 33 34 35 36 37 38 39 40 41 42 43 44 45 46 47 48 49 50
000
ASUS42 KILM 280010
RWRILM
RWRILM
REGIONAL HOURLY WEATHER ROUNDUP
NATIONAL WEATHER SERVICE WILMINGTON NC
800 PM EDT WED AUG 27 2014

NOTE: "FAIR" INDICATES FEW OR NO CLOUDS BELOW 12,000 FEET WITH NO
SIGNIFICANT WEATHER AND/OR OBSTRUCTIONS TO VISIBILITY.

...............WFO WILMINGTON COUNTY WARNING AREA...............

......COASTAL NC AND SC COUNTIES......

CITY           SKY/WX    TMP DP  RH WIND       PRES   REMARKS
WILMINGTON     CLEAR     80  67  64 N6        29.96R
SOUTHPORT      CLEAR     80  68  65 NW3       29.96R
N MYRTLE BEACH NOT AVBL
MYRTLE BEACH   CLEAR     81  66  61 CALM      29.97R

......INLAND NC AND SC COUNTIES.......

CITY           SKY/WX    TMP DP  RH WIND       PRES   REMARKS
LUMBERTON      CLEAR     75  63  66 CALM      29.97R
ELIZABETHTOWN  CLEAR     76  60  58 CALM      29.97S HAZE
WHITEVILLE     CLEAR     75  67  75 CALM      29.97R
FLORENCE       CLEAR     79  59  50 CALM      29.97S
DARLINGTON     CLEAR     81  59  47 N5        29.98R

....................REST OF NORTH CAROLINA......................

.........EASTERN NC.........

CITY           SKY/WX    TMP DP  RH WIND       PRES   REMARKS
CAPE HATTERAS  CLEAR     74  72  93 N8G18     29.92S
JACKSONVILLE   CLEAR     77  64  65 CALM      29.96S
MOREHEAD CITY  CLEAR     78  70  76 NE5       29.93S
KENANSVILLE    CLEAR     71  61  70 CALM      29.98S
NEW BERN       CLEAR     80  67  64 NW5       29.95S
ELIZABETH CITY CLEAR     75  65  70 NE5       29.95S

.........CENTRAL NC.........

CITY           SKY/WX    TMP DP  RH WIND       PRES   REMARKS
RALEIGH DURHAM PTCLDY    75  59  57 CALM      29.98S
ROCKY MOUNT    CLEAR     71  66  84 CALM      29.96F
ROANOKE RAPIDS NOT AVBL
FAYETTEVILLE   CLEAR     80  62  54 N5        29.97S
HOFFMAN        CLEAR     78  61  54 N1        30.00R

.........WESTERN NC.........

CITY           SKY/WX    TMP DP  RH WIND       PRES   REMARKS
CHARLOTTE      PTCLDY    77  55  46 NW3       30.02S
GREENSBORO     PTCLDY    80  61  52 CALM      30.00S
HICKORY        NOT AVBL
BOONE          NOT AVBL
ASHEVILLE      NOT AVBL

.....................REST OF SOUTH CAROLINA.....................

.........EASTERN SC.........

CITY           SKY/WX    TMP DP  RH WIND       PRES   REMARKS
CHARLESTON     PTCLDY    82  57  42 CALM      29.98S
BEAUFORT MCAS  PTCLDY    80  63  55 CALM      29.98S
HILTON HEAD    NOT AVBL

.........CENTRAL SC.........

CITY           SKY/WX    TMP DP  RH WIND       PRES   REMARKS
COLUMBIA       PTCLDY    88  52  29 CALM      29.97S
ORANGEBURG     CLEAR     78  60  53 CALM      29.98S
SUMTER SHAW    CLEAR     84  56  37 S1        29.97R

.........WESTERN SC.........

CITY           SKY/WX    TMP DP  RH WIND       PRES   REMARKS
GREENVILLE     NOT AVBL
ROCK HILL      CLEAR     71  62  73 CALM      30.02S
ANDERSON       CLEAR     81  56  42 CALM      30.02S
CLEMSON        NOT AVBL
GREENWOOD      CLEAR     78  54  43 CALM      30.03R


...................COASTAL AND OFFSHORE REPORTS..................

................LOCAL PIERS AND NC RESERVE................


STATION/POSITION TIME  SKY/WX   TEMP    WIND        PRES    VSBY
                                AIR SEA DIR/SP/G
                 (UTC)          (F)     (DEG/KT/KT) (MB)    (MI)
JOHNY MRCER PIER 0000            82 83  330/  5/  7 1013.7R
NC RESRV MASNBRO NOT AVBL
OCEAN CREST PIER 0000            82 81  320/  3/  4 1013.5R
SPRINGMAID  PIER 0000            83 81  360/  3/  4 1014.7R


................COASTAL AND OFFSHORE BUOYS................


STATION/POSITION TIME  SKY/WX   TEMP    WIND        PRES    VSBY
                                AIR SEA DIR/SP/G
                 (UTC)          (F)     (DEG/KT/KT) (MB)    (MI)
DIMNDSHOAL 41025 0000            76     340/ 19/ 27 1011.9S
WVE H/P(F/S)= 11/12 WND WVE H/P(F/S)=  7/ 8 SWL H/P/D(F/S/D)= 10/130/12

CAPE LOOKOUT     2300            80      30/ 11/ 13 1013.2R
ONSLOW BAY 41036 0000            80 80   40/  6/  8 1013.9R
WVE H/P(F/S)=  6/11 WND WVE H/P(F/S)=  2/ 4 SWL H/P/D(F/S/D)=  5/130/11

5 WRITEBCH 41038 0000            79 81  340/ 10/ 12   N/A
MASONBORO  41110 0000               81                N/A
WVE H/P(F/S)=  4/11 WND WVE H/P(F/S)=  3/10 SWL H/P/D(F/S/D)=  2/130/11

WILM HARBR 41108 0000               81                N/A
WVE H/P(F/S)=  5/12 WND WVE H/P(F/S)=  3/10 SWL H/P/D(F/S/D)=  3/150/12

27WRITEBCH 41037 2300            79 81   10/  6/  8 1013.3F
FRYING PAN 41013 NOT AVBL
SUNST NRSH 41024 2300            85     340/  8/ 10 1014.1R
CAPRS NRSH 41029 2300            83     200/  4/  4   N/A
EDISTO     41004 2300            82 82   30/  6/  6 1014.5R
WVE H/P(F/S)=  6/10 WND WVE H/P(F/S)=  2/ 4 SWL H/P/D(F/S/D)=  7/10



..........OFFSHORE BUOYS BEYOND 100 NM OFFSHORE...........
.....IN A TRIANGLE---HAT TO BERMUDA TO BAHAMAS TO HAT.....


STATION/POSITION TIME  SKY/WX   TEMP    WIND        PRES    VSBY
                                AIR SEA DIR/SP/G
                 (UTC)          (F)     (DEG/KT/KT) (MB)    (MI)
150E HAT   41001 NOT AVBL
W BERMUDA  41048 NOT AVBL
ATLANTIC S 41049 NOT AVBL
E BAHAMAS  41046 NOT AVBL
NE BAHAMAS 41047 NOT AVBL
120E CANVRL41010 0000            82 84   20/  8/ 10 1014.8S
WVE H/P(F/S)= 10/ 9 WND WVE H/P(F/S)=  2/ 4 SWL H/P/D(F/S/D)= 10/ 40/ 9


END


USA.gov is the U.S. government's official web portal to all federal, state and local government web resources and services.